User: anonymous
Location: Caltech
(34.1382°N, 118.1253°W)
Time: 14:32:46
(UTC-07:00)
Language:

KITSAT 1 - Orbit

View from above orbital plane
View from above orbital plane
View from above satellite
View from above satellite

Ground track
Ground track

The orbit data is extracted from the following two-line orbital elements,

1 22077U 92052B   14113.77882069 -.00000020  00000-0  16899-3 0  6450
2 22077 066.0858 216.2161 0011909 231.7779 208.9053 12.86490876 19400
Epoch (UTC): 23 April 2014 18:41:30
Eccentricity: 0.0011909
inclination: 66.0858°
perigee height: 1306 km
apogee height: 1324 km
right ascension of ascending node: 216.2161°
argument of perigee: 231.7779°
revolutions per day: 12.86490876
mean anomaly at epoch: 208.9053°
orbit number at epoch: 1940

The dashed part of the orbit path shows where the satellite is in the earth's shadow,  

DLR